Tracking 29892 objects as of 21-Nov-2024
HD Live streaming from Space Station
objects crossing your sky now

STARLINK-32457

Track STARLINK-32457 now!
10-day predictions
STARLINK-32457 is classified as:


NORAD ID: 61717
Int'l Code: 2024-196L
Perigee: 371.0 km
Apogee: 372.3 km
Inclination: 53.2 °
Period: 91.8 minutes
Semi major axis: 6742 km
RCS: Unknown
Launch date: October 30, 2024
Source: United States (US)
Launch site: AIR FORCE EASTERN TEST RANGE (AFETR)
Your satellite tracking list
Your tracking list is empty




NASA's NSSDC Master Catalog

Two Line Element Set (TLE):
1 61717U 24196L   24325.91668981 -.01381805  00000-0 -13776-1 0  9991
2 61717  53.1595 147.6645 0000975  70.1584 152.2463 15.68053538  4585
Source of the keplerian elements: AFSPC